Location: Newark
(48.0000°N, 67.0000°E)
Time: 08:30:24
(UTC+00:00)

A-11 Canister half - Pass Details

Date: 20 February 2020
Orbit: 1517 x 1683 km, 47.2° (Epoch: 04 April)

Event Time Altitude Azimuth Distance (km) Brightness Sun altitude
Rises 18:49:53 0° 290° (WNW) 4,782 12.0 -51.1°
Reaches altitude 10° 18:53:27 10° 281° (WNW) 3,769 11.2 -51.3°
Enters shadow 18:54:46 14° 276° (W) 3,425 10.9 -51.4°
